Regional Weather Roundup
Issued by NWS

Home | Current Version | Previous Version | Text Only | Print | Product List | Glossary On
Versions: 1 2 3 4 5 6 7 8 9 10 11 12 13 14 15 16 17 18 19 20 21 22 23 24 25 26 27 28 29 30 31 32 33 34 35 36 37 38 39 40 41 42 43 44 45 46 47 48 49 50
000
ASUS43 KBIS 291510
RWRND

NORTH DAKOTA REGIONAL WEATHER ROUNDUP
NATIONAL WEATHER SERVICE BISMARCK ND
1000 AM CDT TUE JUL 29 2014

NOTE: "FAIR" INDICATES FEW OR NO CLOUDS BELOW 12,000 FEET WITH NO
SIGNIFICANT WEATHER AND/OR OBSTRUCTIONS TO VISIBILITY.


NDZ001>003-009>011-017-291600-
NORTHWEST NORTH DAKOTA

CITY           SKY/WX    TMP DP  RH WIND       PRES   REMARKS
WILLISTON      SUNNY     69  55  60 CALM      30.21S
MINOT          SUNNY     72  55  55 CALM      30.20F
MINOT AFB      SUNNY     71  60  70 N1        30.20F
$$

NDZ018>021-031>035-040>046-291600-
SOUTHWEST NORTH DAKOTA

CITY           SKY/WX    TMP DP  RH WIND       PRES   REMARKS
BISMARCK       SUNNY     66  54  65 CALM      30.24F
DICKINSON      CLOUDY    70  55  59 SW7       30.23S
GARRISON         N/A     69  59  70 CALM      30.22S
HETTINGER ARPT SUNNY     68  53  58 SW6       30.26S
$$

NDZ004>008-012>016-024-026-027-054-291600-
NORTHEAST NORTH DAKOTA

CITY           SKY/WX    TMP DP  RH WIND       PRES   REMARKS
GRAND FORKS    SUNNY     68  58  70 NW3       30.17F
GRND FRKS AFB  SUNNY     69  59  69 NW6       30.18F
DEVILS LAKE    SUNNY     66  55  68 NW6       30.20S
$$

NDZ022-023-025-028>030-036>039-047>053-291600-
SOUTHEAST NORTH DAKOTA

CITY           SKY/WX    TMP DP  RH WIND       PRES   REMARKS
FARGO          SUNNY     69  57  65 NW5       30.18F
JAMESTOWN      SUNNY     69  55  60 NW6       30.21S
$$



USA.gov is the U.S. government's official web portal to all federal, state and local government web resources and services.